星链-5710 (STARLINK-5710 )

导读

STARLINK-5710是美国SpaceX公司星链(Starlink)星座的卫星,于2023年2月12日发射入轨,属于星链第二代星座部署序列,用于构建全球卫星互联网通信网络。作为低轨宽带卫星,它依托星链星座架构,可为全球提供高速宽带接入服务,覆盖个人消费、航空、海事、应急通信等场景,是SpaceX推进大规模星座组网、实现全球互联目标的组成部分。

基本信息
目录编号:
55616
目录名称:
STARLINK-5710
国际标识:
2023-020AZ
轨道中心:
EARTH
卫星名称:
星链-5710
卫星全名:
星链-5710 (STARLINK-5710 )
卫星状态:
在轨 (已飞行1219 天)
发射日期:
2023-02-12 UTC
国别 :
美国 (US)
星等 :
--
轨道信息
数据来源 国际轨道数据 AOE轨道数据
星历时间 2026-06-14T14:42:37+0800
19小时前
查看轨道信息
2026-06-15T02:00:00+0800
8小时前
查看轨道信息
半长轴 6861.155km 6861.162km
偏心率 0.0002089 0.0001282
轨道倾角 43.008° 43.000°
近地点辐角 279.505° 246.287°
升交点赤经 168.558° 165.905°
平近点角 80.557° 183.700°
近地点 481.584km 482.145km
远地点 484.452km 483.905km
周期 94.266分钟 94.266分钟
每日圈数 15.275905 15.275882
详细信息
固有亮度:
5
最大亮度:
2.5
卫星平台:
Starlink v1.5
覆盖范围:
全球
运营商:
太空探索技术公司
运营商所在国:
美国
制造商(研发单位):
太空探索技术公司
制造商所在国:
美国
使用方式:
暂无
卫星简介
星链(Starlink)计划是由太空探索技术公司(SpaceX)提出的一个巨型低轨卫星互联网星座项目,计划在2019年至2024年间在太空搭建由约1.2万颗卫星组成的“星链”网络,其中1584颗将部署在地球上空550千米处的近地轨道,并从2020年开始工作。该卫星仍在工作。
2D轨道图
3D轨道图
轨道高度分析图
轨道倾角分析图
轨道综合分析图
查看轨道综合分析图